Cambridge, MD

7:24 AM EDT on May 25, 2017 (GMT -0400)
Cambridge-Dorchester

Weather History for KCGE - March, 2014

Change the Weather History Date:

Sunday, March 23, 2014

  Actual Average (KESN) Record (KESN)
Temperature  
Mean Temperature 44 °F -  
Max Temperature 53 °F 58 °F 82 °F (2012)
Min Temperature 35 °F 34 °F 20 °F (1959)
Degree Days  
Heating Degree Days 21    
Moisture  
Dew Point 27 °F    
Average Humidity 53    
Maximum Humidity 87    
Minimum Humidity 36    
Precipitation  
Precipitation 0.00 in - - ()
Sea Level Pressure  
Sea Level Pressure 30.04 in    
Wind  
Wind Speed 8 mph (NNW)    
Max Wind Speed 17 mph    
Max Gust Speed 28 mph    
Visibility 10 miles    
Events      
Averages and records for this station are not official NWS values.
T = Trace of Precipitation, MM = Missing Value Source: NWS Daily Summary

Daily Weather History Graph

Daily Weather History Graph

Search for Another Location

Airport or City:

Trip Planner

Search our weather history database for the weather conditions in past years. The results will help you decide how hot, cold, wet, or windy it might be!

Date:

Astronomy

Mar. 23, 2014 Rise Set
Actual Time 7:02 AM EDT 7:18 PM EDT
Civil Twilight 6:36 AM EDT 7:45 PM EDT
Nautical Twilight 6:05 AM EDT 8:16 PM EDT
Astronomical Twilight 5:33 AM EDT 8:48 PM EDT
Moon 1:30 AM EDT (3/23) 11:45 AM EDT (3/23)
Length of Visible Light 13h 08m
Length of Day
12h 15m
Waning Gibbous, 55% of the Moon is Illuminated
Mar 23
Waning Gibbous
Mar 23
Last Quarter
Mar 30
New
Apr 7
First Quarter
Apr 15
Full

Hourly Weather History & Observations

Time (EDT) Temp. Windchill Dew Point Humidity Pressure Visibility Wind Dir Wind Speed Gust Speed Precip Events Conditions
12:05 AM 51.8 °F - 32.0 °F 47% 29.98 in 10.0 mi North 4.6 mph - N/A   Clear
12:25 AM 51.8 °F - 32.0 °F 47% 29.98 in 10.0 mi NNW 5.8 mph - N/A   Clear
12:45 AM 53.6 °F - 28.4 °F 38% 29.98 in 10.0 mi North 6.9 mph - N/A   Clear
1:05 AM 53.6 °F - 28.4 °F 38% 29.99 in 10.0 mi North 10.4 mph 16.1 mph N/A   Clear
1:25 AM 53.6 °F - 30.2 °F 41% 29.99 in 10.0 mi North 6.9 mph - N/A   Clear
1:45 AM 51.8 °F - 30.2 °F 44% 29.99 in 10.0 mi North 6.9 mph - N/A   Clear
2:05 AM 51.8 °F - 30.2 °F 44% 29.99 in 10.0 mi North 9.2 mph - N/A   Clear
2:25 AM 51.8 °F - 30.2 °F 44% 29.99 in 10.0 mi North 6.9 mph 16.1 mph N/A   Clear
2:46 AM 51.8 °F - 30.2 °F 44% 30.00 in 10.0 mi North 10.4 mph - N/A   Clear
3:06 AM 50.0 °F - 30.2 °F 47% 30.00 in 10.0 mi North 6.9 mph - N/A   Clear
3:26 AM 48.2 °F - 30.2 °F 50% 30.00 in 10.0 mi North 9.2 mph - N/A   Clear
3:46 AM 48.2 °F - 30.2 °F 50% 30.01 in 10.0 mi North 6.9 mph - N/A   Clear
4:06 AM 46.4 °F 41.9 °F 30.2 °F 53% 30.01 in 10.0 mi North 9.2 mph - N/A   Clear
4:26 AM 46.4 °F 41.5 °F 30.2 °F 53% 30.01 in 10.0 mi North 10.4 mph - N/A   Clear
4:46 AM 46.4 °F 41.5 °F 28.4 °F 50% 30.02 in 10.0 mi North 10.4 mph - N/A   Clear
5:06 AM 44.6 °F 39.2 °F 28.4 °F 53% 30.03 in 10.0 mi North 10.4 mph - N/A   Clear
5:26 AM 44.6 °F 39.7 °F 28.4 °F 53% 30.04 in 10.0 mi North 9.2 mph - N/A   Clear
5:46 AM 44.6 °F 39.7 °F 28.4 °F 53% 30.05 in 10.0 mi North 9.2 mph - N/A   Clear
6:06 AM 44.6 °F 38.8 °F 28.4 °F 53% 30.05 in 10.0 mi North 11.5 mph - N/A   Clear
6:26 AM 42.8 °F 37.5 °F 28.4 °F 57% 30.06 in 10.0 mi North 9.2 mph - N/A   Scattered Clouds
6:46 AM 42.8 °F 38.6 °F 26.6 °F 53% - 10.0 mi North 6.9 mph - N/A   Mostly Cloudy
7:06 AM 42.8 °F 38.0 °F 26.6 °F 53% 30.06 in 10.0 mi North 8.1 mph - N/A   Scattered Clouds
7:26 AM 42.8 °F 37.5 °F 26.6 °F 53% 30.06 in 10.0 mi North 9.2 mph - N/A   Clear
7:46 AM 42.8 °F 37.5 °F 26.6 °F 53% 30.07 in 10.0 mi North 9.2 mph - N/A   Clear
8:06 AM 42.8 °F 37.5 °F 26.6 °F 53% 30.08 in 10.0 mi North 9.2 mph - N/A   Scattered Clouds
8:26 AM 42.8 °F 36.2 °F 28.4 °F 57% 30.09 in 10.0 mi NNW 12.7 mph - N/A   Scattered Clouds
8:46 AM 42.8 °F 36.6 °F 24.8 °F 49% 30.10 in 10.0 mi North 11.5 mph - N/A   Clear
9:06 AM 42.8 °F 36.6 °F 23.0 °F 46% 30.09 in 10.0 mi North 11.5 mph 16.1 mph N/A   Clear
9:26 AM 42.8 °F 35.8 °F 21.2 °F 42% 30.10 in 10.0 mi North 13.8 mph 20.7 mph N/A   Clear
9:46 AM 44.6 °F 38.1 °F 21.2 °F 39% 30.10 in 10.0 mi North 13.8 mph 19.6 mph N/A   Clear
10:06 AM 44.6 °F 37.8 °F 21.2 °F 39% 30.10 in 10.0 mi NNE 15.0 mph 18.4 mph N/A   Clear
10:26 AM 44.6 °F 39.2 °F 21.2 °F 39% 30.09 in 10.0 mi North 10.4 mph 19.6 mph N/A   Clear
10:47 AM 44.6 °F 39.2 °F 21.2 °F 39% 30.09 in 10.0 mi North 10.4 mph 19.6 mph N/A   Clear
11:07 AM 44.6 °F 38.8 °F 21.2 °F 39% 30.09 in 10.0 mi North 11.5 mph 16.1 mph N/A   Clear
11:27 AM 44.6 °F 39.2 °F 23.0 °F 43% 30.07 in 10.0 mi NNE 10.4 mph - N/A   Clear
11:47 AM 44.6 °F 40.2 °F 23.0 °F 43% 30.07 in 10.0 mi North 8.1 mph - N/A   Clear
12:07 PM 44.6 °F 39.2 °F 23.0 °F 43% 30.07 in 10.0 mi NNE 10.4 mph - N/A   Clear
12:27 PM 44.6 °F 38.4 °F 23.0 °F 43% 30.07 in 10.0 mi North 12.7 mph - N/A   Clear
12:47 PM 44.6 °F 39.2 °F 23.0 °F 43% 30.07 in 10.0 mi North 10.4 mph - N/A   Clear
1:07 PM 44.6 °F 39.2 °F 23.0 °F 43% 30.07 in 10.0 mi NNW 10.4 mph - N/A   Clear
1:27 PM 44.6 °F 41.4 °F 23.0 °F 43% 30.07 in 10.0 mi NW 5.8 mph - N/A   Clear
1:47 PM 44.6 °F 39.2 °F 24.8 °F 46% 30.05 in 10.0 mi NW 10.4 mph - N/A   Clear
2:07 PM 44.6 °F 40.2 °F 26.6 °F 49% 30.05 in 10.0 mi NW 8.1 mph - N/A   Clear
2:27 PM 42.8 °F 36.2 °F 24.8 °F 49% 30.04 in 10.0 mi NW 12.7 mph 17.3 mph N/A   Clear
2:47 PM 42.8 °F 37.5 °F 24.8 °F 49% 30.04 in 10.0 mi NNW 9.2 mph - N/A   Scattered Clouds
3:07 PM 41.0 °F 35.8 °F 28.4 °F 61% 30.04 in 10.0 mi NW 8.1 mph 16.1 mph N/A   Mostly Cloudy
3:27 PM 41.0 °F 35.2 °F 30.2 °F 65% 30.04 in 10.0 mi NNW 9.2 mph 16.1 mph N/A   Mostly Cloudy
3:47 PM 41.0 °F 37.1 °F 32.0 °F 70% 30.03 in 10.0 mi North 5.8 mph - N/A   Overcast
4:07 PM 41.0 °F 38.0 °F 32.0 °F 70% 30.02 in 10.0 mi NNW 4.6 mph - N/A   Scattered Clouds
4:27 PM 41.0 °F 39.0 °F 30.2 °F 65% 30.02 in 10.0 mi NNW 3.5 mph - N/A   Clear
4:47 PM 42.8 °F 40.1 °F 30.2 °F 61% 30.01 in 10.0 mi NW 4.6 mph - N/A   Scattered Clouds
5:07 PM 42.8 °F 41.1 °F 28.4 °F 57% 30.01 in 10.0 mi NW 3.5 mph - N/A   Scattered Clouds
5:27 PM 42.8 °F 39.3 °F 28.4 °F 57% 30.01 in 10.0 mi NW 5.8 mph - N/A   Mostly Cloudy
5:47 PM 42.8 °F 41.1 °F 30.2 °F 61% 30.01 in 10.0 mi NNW 3.5 mph - N/A   Scattered Clouds
6:07 PM 42.8 °F 40.1 °F 28.4 °F 57% 30.01 in 10.0 mi NNW 4.6 mph - N/A   Clear
6:27 PM 42.8 °F 39.3 °F 28.4 °F 57% 30.01 in 10.0 mi NNW 5.8 mph - N/A   Clear
6:47 PM 42.8 °F 40.1 °F 30.2 °F 61% 30.02 in 10.0 mi NNW 4.6 mph - N/A   Clear
7:07 PM 42.8 °F 40.1 °F 30.2 °F 61% 30.02 in 10.0 mi NNW 4.6 mph - N/A   Clear
7:27 PM 41.0 °F 39.0 °F 30.2 °F 65% 30.03 in 10.0 mi NNW 3.5 mph - N/A   Clear
7:48 PM 39.2 °F - 32.0 °F 75% 30.04 in 10.0 mi Calm Calm - N/A   Clear
8:08 PM 37.4 °F - 32.0 °F 81% 30.04 in 10.0 mi Calm Calm - N/A   Clear
8:27 PM 37.4 °F - 32.0 °F 81% 30.05 in 10.0 mi Calm Calm - N/A   Clear
8:48 PM 35.6 °F - 32.0 °F 87% 30.05 in 10.0 mi Calm Calm - N/A   Clear
9:08 PM 35.6 °F - 32.0 °F 87% 30.06 in 10.0 mi Calm Calm - N/A   Clear
9:28 PM 35.6 °F 31.7 °F 32.0 °F 87% 30.07 in 10.0 mi West 4.6 mph - N/A   Clear
9:48 PM 37.4 °F 32.8 °F 28.4 °F 70% 30.07 in 10.0 mi WNW 5.8 mph - N/A   Clear
10:08 PM 39.2 °F 35.9 °F 28.4 °F 65% 30.07 in 10.0 mi NW 4.6 mph - N/A   Clear
10:28 PM 41.0 °F 35.8 °F 26.6 °F 57% 30.08 in 10.0 mi NW 8.1 mph - N/A   Clear
10:48 PM 41.0 °F 36.4 °F 23.0 °F 49% 30.09 in 10.0 mi NW 6.9 mph - N/A   Clear
11:08 PM 41.0 °F 33.9 °F 17.6 °F 39% 30.10 in 10.0 mi NW 12.7 mph 23.0 mph N/A   Clear
11:28 PM 41.0 °F 32.5 °F 15.8 °F 36% 30.11 in 10.0 mi NW 17.3 mph 27.6 mph N/A   Clear
11:48 PM 41.0 °F 32.8 °F 17.6 °F 39% 30.12 in 10.0 mi NW 16.1 mph 23.0 mph N/A   Clear